owner,sensor,date,latitude,longitude,vertical_datum,direction_of_sea_water_velocity,sea_water_speed,upward_sea_water_velocity,qcFlag 
TABS,ioos:station:wmo:42046:1,2007-09-01T00:00:00Z,27.8903,-94.0367,2.0,298.2951033,32.29906655,-99999.0,'11111222,11111222,99999999' 
TABS,ioos:station:wmo:42046:1,2007-09-01T00:30:00Z,27.8903,-94.0367,2.0,301.8771305,31.64207642,-99999.0,'11111222,11111222,99999999' 
TABS,ioos:station:wmo:42046:1,2007-09-01T01:00:00Z,27.8903,-94.0367,2.0,306.2105985,20.49935853,-99999.0,'11111222,11111222,99999999' 
TABS,ioos:station:wmo:42046:1,2007-09-01T01:30:00Z,27.8903,-94.0367,2.0,300.1773904,32.7250149,-99999.0,'11111222,11111222,99999999' 
TABS,ioos:station:wmo:42046:1,2007-09-01T02:00:00Z,27.8903,-94.0367,2.0,304.3322842,33.42278414,-99999.0,'11111222,11111222,99999999' 
TABS,ioos:station:wmo:42046:1,2007-09-01T02:30:00Z,27.8903,-94.0367,2.0,307.9776987,36.32078468,-99999.0,'11111222,11111222,99999999' 
TABS,ioos:station:wmo:42046:1,2007-09-01T03:00:00Z,27.8903,-94.0367,2.0,307.504757,37.56430353,-99999.0,'11111222,11111222,99999999' 
TABS,ioos:station:wmo:42046:1,2007-09-01T03:30:00Z,27.8903,-94.0367,2.0,311.8721175,38.74354269,-99999.0,'11111222,11111222,99999999' 
TABS,ioos:station:wmo:42046:1,2007-09-01T04:00:00Z,27.8903,-94.0367,2.0,317.7684987,38.65313441,-99999.0,'11111222,11111222,99999999' 
TABS,ioos:station:wmo:42046:1,2007-09-01T04:30:00Z,27.8903,-94.0367,2.0,316.0016223,37.63089821,-99999.0,'11111222,11111222,99999999' 
TABS,ioos:station:wmo:42046:1,2007-09-01T05:00:00Z,27.8903,-94.0367,2.0,321.034724,39.21422829,-99999.0,'11111222,11111222,99999999' 
TABS,ioos:station:wmo:42046:1,2007-09-01T05:30:00Z,27.8903,-94.0367,2.0,322.1678976,40.12366135,-99999.0,'11111222,11111222,99999999' 
TABS,ioos:station:wmo:42046:1,2007-09-01T06:00:00Z,27.8903,-94.0367,2.0,326.576479,38.19706795,-99999.0,'11111222,11111222,99999999' 
TABS,ioos:station:wmo:42046:1,2007-09-01T06:30:00Z,27.8903,-94.0367,2.0,327.4584156,39.16969875,-99999.0,'11111222,11111222,99999999' 
TABS,ioos:station:wmo:42046:1,2007-09-01T07:00:00Z,27.8903,-94.0367,2.0,329.4332408,38.63955745,-99999.0,'11111222,11111222,99999999' 
TABS,ioos:station:wmo:42046:1,2007-09-01T07:30:00Z,27.8903,-94.0367,2.0,330.4287308,38.54024909,-99999.0,'11111222,11111222,99999999' 
TABS,ioos:station:wmo:42046:1,2007-09-01T08:00:00Z,27.8903,-94.0367,2.0,333.846606,41.10893334,-99999.0,'11111222,11111222,99999999' 
TABS,ioos:station:wmo:42046:1,2007-09-01T08:30:00Z,27.8903,-94.0367,2.0,341.9285355,37.9101464,-99999.0,'11111222,11111222,99999999' 
TABS,ioos:station:wmo:42046:1,2007-09-01T09:00:00Z,27.8903,-94.0367,2.0,339.8374394,39.22375301,-99999.0,'11111222,11111222,99999999' 
TABS,ioos:station:wmo:42046:1,2007-09-01T09:30:00Z,27.8903,-94.0367,2.0,342.7949804,40.66993238,-99999.0,'11111222,11111222,99999999' 
TABS,ioos:station:wmo:42046:1,2007-09-01T10:00:00Z,27.8903,-94.0367,2.0,343.0158596,40.22441299,-99999.0,'11111222,11111222,99999999' 
TABS,ioos:station:wmo:42046:1,2007-09-01T10:30:00Z,27.8903,-94.0367,2.0,349.2871125,40.66884803,-99999.0,'11111222,11111222,99999999' 
TABS,ioos:station:wmo:42046:1,2007-09-01T11:00:00Z,27.8903,-94.0367,2.0,345.7329285,40.29277106,-99999.0,'11111222,11111222,99999999' 
TABS,ioos:station:wmo:42046:1,2007-09-01T11:30:00Z,27.8903,-94.0367,2.0,347.2551894,27.87684702,-99999.0,'11111222,11111222,99999999' 
TABS,ioos:station:wmo:42046:1,2007-09-01T12:00:00Z,27.8903,-94.0367,2.0,355.4200571,32.93517572,-99999.0,'11111222,11111222,99999999' 
TABS,ioos:station:wmo:42046:1,2007-09-01T12:30:00Z,27.8903,-94.0367,2.0,357.8982452,33.26238115,-99999.0,'11111222,11111222,99999999' 
TABS,ioos:station:wmo:42046:1,2007-09-01T13:00:00Z,27.8903,-94.0367,2.0,358.6095351,30.07885969,-99999.0,'11111222,11111222,99999999' 
TABS,ioos:station:wmo:42046:1,2007-09-01T13:30:00Z,27.8903,-94.0367,2.0,5.173172998,24.17847803,-99999.0,'11111222,11111222,99999999' 
TABS,ioos:station:wmo:42046:1,2007-09-01T14:00:00Z,27.8903,-94.0367,2.0,359.1533946,19.6221431,-99999.0,'11111222,11144222,99999999' 
TABS,ioos:station:wmo:42046:1,2007-09-01T14:30:00Z,27.8903,-94.0367,2.0,2.782295082,17.10015497,-99999.0,'11111222,11111222,99999999' 
TABS,ioos:station:wmo:42046:1,2007-09-01T15:00:00Z,27.8903,-94.0367,2.0,2.874710174,16.55082475,-99999.0,'11111222,11111222,99999999' 
TABS,ioos:station:wmo:42046:1,2007-09-01T15:30:00Z,27.8903,-94.0367,2.0,352.1694052,12.18361605,-99999.0,'11111222,11111222,99999999' 
TABS,ioos:station:wmo:42046:1,2007-09-01T16:00:00Z,27.8903,-94.0367,2.0,342.1076987,12.69395132,-99999.0,'11111222,11111222,99999999' 
TABS,ioos:station:wmo:42046:1,2007-09-01T16:30:00Z,27.8903,-94.0367,2.0,334.1806617,12.03106396,-99999.0,'11111222,11111222,99999999' 
TABS,ioos:station:wmo:42046:1,2007-09-01T17:00:00Z,27.8903,-94.0367,2.0,336.9109474,12.39272367,-99999.0,'11111222,11111222,99999999' 
TABS,ioos:station:wmo:42046:1,2007-09-01T17:30:00Z,27.8903,-94.0367,2.0,339.3580236,16.33896264,-99999.0,'11111222,11111222,99999999' 
TABS,ioos:station:wmo:42046:1,2007-09-01T18:00:00Z,27.8903,-94.0367,2.0,331.4211703,18.96015295,-99999.0,'11111222,11111222,99999999' 
TABS,ioos:station:wmo:42046:1,2007-09-01T18:30:00Z,27.8903,-94.0367,2.0,328.5318413,23.75347554,-99999.0,'11111222,11111222,99999999' 
TABS,ioos:station:wmo:42046:1,2007-09-01T19:00:00Z,27.8903,-94.0367,2.0,328.3878593,22.87423223,-99999.0,'11111222,11111222,99999999' 
TABS,ioos:station:wmo:42046:1,2007-09-01T19:30:00Z,27.8903,-94.0367,2.0,327.6200784,25.11506719,-99999.0,'11111222,11111222,99999999' 
TABS,ioos:station:wmo:42046:1,2007-09-01T20:00:00Z,27.8903,-94.0367,2.0,330.7858988,29.60587948,-99999.0,'11111222,11111222,99999999' 
TABS,ioos:station:wmo:42046:1,2007-09-01T20:30:00Z,27.8903,-94.0367,2.0,327.8577462,34.0959895,-99999.0,'11111222,11111222,99999999' 
TABS,ioos:station:wmo:42046:1,2007-09-01T21:00:00Z,27.8903,-94.0367,2.0,328.2739851,32.8603241,-99999.0,'11111222,11111222,99999999' 
TABS,ioos:station:wmo:42046:1,2007-09-01T21:30:00Z,27.8903,-94.0367,2.0,329.8452867,31.7115326,-99999.0,'11111222,11111222,99999999' 
TABS,ioos:station:wmo:42046:1,2007-09-01T22:00:00Z,27.8903,-94.0367,2.0,324.9388369,32.44816174,-99999.0,'11111222,11111222,99999999' 
TABS,ioos:station:wmo:42046:1,2007-09-01T22:30:00Z,27.8903,-94.0367,2.0,330.9874934,31.93783023,-99999.0,'11111222,11111222,99999999' 
TABS,ioos:station:wmo:42046:1,2007-09-01T23:00:00Z,27.8903,-94.0367,2.0,333.082094,29.02471361,-99999.0,'11111222,11111222,99999999' 
TABS,ioos:station:wmo:42046:1,2007-09-01T23:30:00Z,27.8903,-94.0367,2.0,327.9292204,28.66448151,-99999.0,'11111222,11111222,99999999' 
TABS,ioos:station:wmo:42046:1,2007-09-02T00:00:00Z,27.8903,-94.0367,2.0,329.3165117,23.16287547,-99999.0,'11111222,11111222,99999999' 
TABS,ioos:station:wmo:42046:1,2007-09-02T00:30:00Z,27.8903,-94.0367,2.0,328.0829401,24.83471965,-99999.0,'11111222,11111222,99999999' 
TABS,ioos:station:wmo:42046:1,2007-09-02T01:00:00Z,27.8903,-94.0367,2.0,340.5576963,12.58781157,-99999.0,'11111222,11111222,99999999' 
TABS,ioos:station:wmo:42046:1,2007-09-02T01:30:00Z,27.8903,-94.0367,2.0,324.4293974,22.05566821,-99999.0,'11111222,11111222,99999999' 
TABS,ioos:station:wmo:42046:1,2007-09-02T02:00:00Z,27.8903,-94.0367,2.0,324.1775947,22.4337469,-99999.0,'11111222,11111222,99999999' 
TABS,ioos:station:wmo:42046:1,2007-09-02T02:30:00Z,27.8903,-94.0367,2.0,322.0337157,24.13842166,-99999.0,'11111222,11111222,99999999' 
TABS,ioos:station:wmo:42046:1,2007-09-02T03:00:00Z,27.8903,-94.0367,2.0,319.476964,23.91660511,-99999.0,'11111222,11111222,99999999' 
TABS,ioos:station:wmo:42046:1,2007-09-02T03:30:00Z,27.8903,-94.0367,2.0,316.6747622,24.44097584,-99999.0,'11111222,11111222,99999999' 
TABS,ioos:station:wmo:42046:1,2007-09-02T04:00:00Z,27.8903,-94.0367,2.0,312.4377836,29.41677413,-99999.0,'11111222,11111222,99999999' 
TABS,ioos:station:wmo:42046:1,2007-09-02T04:30:00Z,27.8903,-94.0367,2.0,313.0019465,28.59157393,-99999.0,'11111222,11111222,99999999' 
TABS,ioos:station:wmo:42046:1,2007-09-02T05:00:00Z,27.8903,-94.0367,2.0,309.937544,24.51912723,-99999.0,'11111222,11111222,99999999' 
TABS,ioos:station:wmo:42046:1,2007-09-02T05:30:00Z,27.8903,-94.0367,2.0,313.7574865,20.86455847,-99999.0,'11111222,11111222,99999999' 
TABS,ioos:station:wmo:42046:1,2007-09-02T06:00:00Z,27.8903,-94.0367,2.0,319.3990108,24.24740192,-99999.0,'11111222,11111222,99999999' 
TABS,ioos:station:wmo:42046:1,2007-09-02T06:30:00Z,27.8903,-94.0367,2.0,315.7112764,30.20285583,-99999.0,'11111222,11111222,99999999' 
TABS,ioos:station:wmo:42046:1,2007-09-02T07:00:00Z,27.8903,-94.0367,2.0,324.8572853,29.53341328,-99999.0,'11111222,11111222,99999999' 
TABS,ioos:station:wmo:42046:1,2007-09-02T07:30:00Z,27.8903,-94.0367,2.0,328.9949525,28.36244348,-99999.0,'11111222,11111222,99999999' 
TABS,ioos:station:wmo:42046:1,2007-09-02T08:00:00Z,27.8903,-94.0367,2.0,332.413325,32.34763206,-99999.0,'11111222,11111222,99999999' 
TABS,ioos:station:wmo:42046:1,2007-09-02T08:30:00Z,27.8903,-94.0367,2.0,333.5985981,36.07239526,-99999.0,'11111222,11111222,99999999' 
TABS,ioos:station:wmo:42046:1,2007-09-02T09:00:00Z,27.8903,-94.0367,2.0,338.4268416,41.06684916,-99999.0,'11111222,11111222,99999999' 
TABS,ioos:station:wmo:42046:1,2007-09-02T09:30:00Z,27.8903,-94.0367,2.0,337.9665171,40.75674791,-99999.0,'11111222,11111222,99999999' 
TABS,ioos:station:wmo:42046:1,2007-09-02T10:00:00Z,27.8903,-94.0367,2.0,339.2426859,40.26357411,-99999.0,'11111222,11111222,99999999' 
TABS,ioos:station:wmo:42046:1,2007-09-02T10:30:00Z,27.8903,-94.0367,2.0,339.7304562,40.29542902,-99999.0,'11111222,11111222,99999999' 
TABS,ioos:station:wmo:42046:1,2007-09-02T11:00:00Z,27.8903,-94.0367,2.0,339.3681644,37.03536283,-99999.0,'11111222,11111222,99999999' 
TABS,ioos:station:wmo:42046:1,2007-09-02T11:30:00Z,27.8903,-94.0367,2.0,340.9324706,33.21226581,-99999.0,'11111222,11111222,99999999' 
TABS,ioos:station:wmo:42046:1,2007-09-02T12:00:00Z,27.8903,-94.0367,2.0,340.5325344,40.1769399,-99999.0,'11111222,11111222,99999999' 
TABS,ioos:station:wmo:42046:1,2007-09-02T12:30:00Z,27.8903,-94.0367,2.0,346.0009814,37.57605221,-99999.0,'11111222,11111222,99999999' 
TABS,ioos:station:wmo:42046:1,2007-09-02T13:00:00Z,27.8903,-94.0367,2.0,350.0761908,32.02925069,-99999.0,'11111222,11111222,99999999' 
TABS,ioos:station:wmo:42046:1,2007-09-02T13:30:00Z,27.8903,-94.0367,2.0,342.0342247,37.86638087,-99999.0,'11111222,11111222,99999999' 
TABS,ioos:station:wmo:42046:1,2007-09-02T14:00:00Z,27.8903,-94.0367,2.0,340.9386426,35.27415484,-99999.0,'11111222,11111222,99999999' 
TABS,ioos:station:wmo:42046:1,2007-09-02T14:30:00Z,27.8903,-94.0367,2.0,339.1412544,33.64511852,-99999.0,'11111222,11111222,99999999' 
TABS,ioos:station:wmo:42046:1,2007-09-02T15:00:00Z,27.8903,-94.0367,2.0,343.8357491,35.20164911,-99999.0,'11111222,11111222,99999999' 
TABS,ioos:station:wmo:42046:1,2007-09-02T15:30:00Z,27.8903,-94.0367,2.0,341.7733634,36.57514457,-99999.0,'11111222,11111222,99999999' 
TABS,ioos:station:wmo:42046:1,2007-09-02T16:00:00Z,27.8903,-94.0367,2.0,343.0693147,34.8191858,-99999.0,'11111222,11111222,99999999' 
TABS,ioos:station:wmo:42046:1,2007-09-02T16:30:00Z,27.8903,-94.0367,2.0,345.0337997,40.03820675,-99999.0,'11111222,11111222,99999999' 
TABS,ioos:station:wmo:42046:1,2007-09-02T17:00:00Z,27.8903,-94.0367,2.0,356.076535,30.25090577,-99999.0,'11111222,11111222,99999999' 
TABS,ioos:station:wmo:42046:1,2007-09-02T17:30:00Z,27.8903,-94.0367,2.0,5.449548443,30.11610865,-99999.0,'11111222,11111222,99999999' 
TABS,ioos:station:wmo:42046:1,2007-09-02T18:00:00Z,27.8903,-94.0367,2.0,5.276015714,27.40610333,-99999.0,'11111222,11111222,99999999' 
TABS,ioos:station:wmo:42046:1,2007-09-02T18:30:00Z,27.8903,-94.0367,2.0,3.903374909,29.08746809,-99999.0,'11111222,11111222,99999999' 
TABS,ioos:station:wmo:42046:1,2007-09-02T19:00:00Z,27.8903,-94.0367,2.0,359.1574403,33.99367735,-99999.0,'11111222,11144222,99999999' 
TABS,ioos:station:wmo:42046:1,2007-09-02T19:30:00Z,27.8903,-94.0367,2.0,3.849687064,33.36527686,-99999.0,'11111222,11111222,99999999' 
TABS,ioos:station:wmo:42046:1,2007-09-02T20:00:00Z,27.8903,-94.0367,2.0,5.736441452,31.11581109,-99999.0,'11111222,11111222,99999999' 
TABS,ioos:station:wmo:42046:1,2007-09-02T20:30:00Z,27.8903,-94.0367,2.0,6.822716148,25.84299712,-99999.0,'11111222,11111222,99999999' 
TABS,ioos:station:wmo:42046:1,2007-09-02T21:00:00Z,27.8903,-94.0367,2.0,5.368403981,24.47735688,-99999.0,'11111222,11111222,99999999' 
TABS,ioos:station:wmo:42046:1,2007-09-02T21:30:00Z,27.8903,-94.0367,2.0,8.843983091,25.43236127,-99999.0,'11111222,11111222,99999999' 
TABS,ioos:station:wmo:42046:1,2007-09-02T22:00:00Z,27.8903,-94.0367,2.0,10.10878763,25.06915236,-99999.0,'11111222,11111222,99999999' 
TABS,ioos:station:wmo:42046:1,2007-09-02T22:30:00Z,27.8903,-94.0367,2.0,8.870745572,22.76225384,-99999.0,'11111222,11111222,99999999' 
TABS,ioos:station:wmo:42046:1,2007-09-02T23:00:00Z,27.8903,-94.0367,2.0,5.213923323,18.81785588,-99999.0,'11111222,11111222,99999999' 
TABS,ioos:station:wmo:42046:1,2007-09-02T23:30:00Z,27.8903,-94.0367,2.0,357.070925,18.39403436,-99999.0,'11111222,11111222,99999999' 
TABS,ioos:station:wmo:42046:1,2007-09-03T00:00:00Z,27.8903,-94.0367,2.0,358.1319018,19.63043555,-99999.0,'11111222,11111222,99999999' 
TABS,ioos:station:wmo:42046:1,2007-09-03T00:30:00Z,27.8903,-94.0367,2.0,1.420727793,18.55570263,-99999.0,'11111222,11111222,99999999' 
TABS,ioos:station:wmo:42046:1,2007-09-03T01:00:00Z,27.8903,-94.0367,2.0,356.213253,9.841488709,-99999.0,'11133222,11111222,99999999' 
TABS,ioos:station:wmo:42046:1,2007-09-03T01:30:00Z,27.8903,-94.0367,2.0,349.6107021,13.91819672,-99999.0,'11111222,11111222,99999999' 
TABS,ioos:station:wmo:42046:1,2007-09-03T02:00:00Z,27.8903,-94.0367,2.0,341.9745524,13.28190498,-99999.0,'11111222,11111222,99999999' 
TABS,ioos:station:wmo:42046:1,2007-09-03T02:30:00Z,27.8903,-94.0367,2.0,339.3230219,14.38673,-99999.0,'11111222,11111222,99999999' 
TABS,ioos:station:wmo:42046:1,2007-09-03T03:00:00Z,27.8903,-94.0367,2.0,333.2544786,14.17674152,-99999.0,'11111222,11111222,99999999' 
TABS,ioos:station:wmo:42046:1,2007-09-03T03:30:00Z,27.8903,-94.0367,2.0,325.5423624,12.83136781,-99999.0,'11111222,11111222,99999999' 
TABS,ioos:station:wmo:42046:1,2007-09-03T04:00:00Z,27.8903,-94.0367,2.0,317.2118535,13.92623424,-99999.0,'11111222,11111222,99999999' 
TABS,ioos:station:wmo:42046:1,2007-09-03T04:30:00Z,27.8903,-94.0367,2.0,310.4572994,7.320341522,-99999.0,'11133222,11111222,99999999' 
TABS,ioos:station:wmo:42046:1,2007-09-03T05:00:00Z,27.8903,-94.0367,2.0,312.0818878,12.63824751,-99999.0,'11111222,11111222,99999999' 
TABS,ioos:station:wmo:42046:1,2007-09-03T05:30:00Z,27.8903,-94.0367,2.0,299.0978003,7.793599938,-99999.0,'11133222,11111222,99999999' 
TABS,ioos:station:wmo:42046:1,2007-09-03T06:00:00Z,27.8903,-94.0367,2.0,300.5185802,12.13046166,-99999.0,'11111222,11111222,99999999' 
TABS,ioos:station:wmo:42046:1,2007-09-03T06:30:00Z,27.8903,-94.0367,2.0,310.0253373,13.37226981,-99999.0,'11111222,11111222,99999999' 
TABS,ioos:station:wmo:42046:1,2007-09-03T07:00:00Z,27.8903,-94.0367,2.0,299.5391341,14.13757051,-99999.0,'11111222,11111222,99999999' 
TABS,ioos:station:wmo:42046:1,2007-09-03T07:30:00Z,27.8903,-94.0367,2.0,323.2382682,20.18403577,-99999.0,'11111222,11111222,99999999' 
TABS,ioos:station:wmo:42046:1,2007-09-03T08:00:00Z,27.8903,-94.0367,2.0,318.1425246,22.70397763,-99999.0,'11111222,11111222,99999999' 
TABS,ioos:station:wmo:42046:1,2007-09-03T08:30:00Z,27.8903,-94.0367,2.0,325.4968029,17.58299463,-99999.0,'11111222,11111222,99999999' 
TABS,ioos:station:wmo:42046:1,2007-09-03T09:00:00Z,27.8903,-94.0367,2.0,321.7621899,22.28035233,-99999.0,'11111222,11111222,99999999' 
TABS,ioos:station:wmo:42046:1,2007-09-03T09:30:00Z,27.8903,-94.0367,2.0,315.3391165,21.52470673,-99999.0,'11111222,11111222,99999999' 
TABS,ioos:station:wmo:42046:1,2007-09-03T10:00:00Z,27.8903,-94.0367,2.0,318.2154352,25.46764614,-99999.0,'11111222,11111222,99999999' 
TABS,ioos:station:wmo:42046:1,2007-09-03T10:30:00Z,27.8903,-94.0367,2.0,324.874842,27.7908798,-99999.0,'11111222,11111222,99999999' 
TABS,ioos:station:wmo:42046:1,2007-09-03T11:00:00Z,27.8903,-94.0367,2.0,328.7200643,25.46106832,-99999.0,'11111222,11111222,99999999' 
TABS,ioos:station:wmo:42046:1,2007-09-03T11:30:00Z,27.8903,-94.0367,2.0,332.7836484,28.31492363,-99999.0,'11111222,11111222,99999999' 
TABS,ioos:station:wmo:42046:1,2007-09-03T12:00:00Z,27.8903,-94.0367,2.0,336.2164826,35.48347503,-99999.0,'11111222,11111222,99999999' 
TABS,ioos:station:wmo:42046:1,2007-09-03T12:30:00Z,27.8903,-94.0367,2.0,337.2212159,34.60936434,-99999.0,'11111222,11111222,99999999' 
TABS,ioos:station:wmo:42046:1,2007-09-03T13:00:00Z,27.8903,-94.0367,2.0,344.8349192,35.81733938,-99999.0,'11111222,11111222,99999999' 
TABS,ioos:station:wmo:42046:1,2007-09-03T13:30:00Z,27.8903,-94.0367,2.0,349.7713363,38.46129743,-99999.0,'11111222,11111222,99999999' 
TABS,ioos:station:wmo:42046:1,2007-09-03T14:00:00Z,27.8903,-94.0367,2.0,355.488982,38.2685589,-99999.0,'11111222,11111222,99999999' 
TABS,ioos:station:wmo:42046:1,2007-09-03T14:30:00Z,27.8903,-94.0367,2.0,354.7098879,41.64740688,-99999.0,'11111222,11111222,99999999' 
TABS,ioos:station:wmo:42046:1,2007-09-03T15:00:00Z,27.8903,-94.0367,2.0,357.5112572,41.9095371,-99999.0,'11111222,11111222,99999999' 
TABS,ioos:station:wmo:42046:1,2007-09-03T15:30:00Z,27.8903,-94.0367,2.0,356.9249944,38.58556466,-99999.0,'11111222,11111222,99999999' 
TABS,ioos:station:wmo:42046:1,2007-09-03T16:00:00Z,27.8903,-94.0367,2.0,356.2679028,40.55601682,-99999.0,'11111222,11111222,99999999' 
TABS,ioos:station:wmo:42046:1,2007-09-03T16:30:00Z,27.8903,-94.0367,2.0,357.7510843,39.75062264,-99999.0,'11111222,11111222,99999999' 
TABS,ioos:station:wmo:42046:1,2007-09-03T17:00:00Z,27.8903,-94.0367,2.0,357.7461367,36.35813252,-99999.0,'11111222,11111222,99999999' 
TABS,ioos:station:wmo:42046:1,2007-09-03T17:30:00Z,27.8903,-94.0367,2.0,1.160736992,32.5866844,-99999.0,'11111222,11111222,99999999' 
TABS,ioos:station:wmo:42046:1,2007-09-03T18:00:00Z,27.8903,-94.0367,2.0,3.326729793,30.33110615,-99999.0,'11111222,11111222,99999999' 
TABS,ioos:station:wmo:42046:1,2007-09-03T18:30:00Z,27.8903,-94.0367,2.0,6.004254554,30.30624523,-99999.0,'11111222,11111222,99999999' 
TABS,ioos:station:wmo:42046:1,2007-09-03T19:00:00Z,27.8903,-94.0367,2.0,6.511852594,33.94901177,-99999.0,'11111222,11111222,99999999' 
TABS,ioos:station:wmo:42046:1,2007-09-03T19:30:00Z,27.8903,-94.0367,2.0,12.40626049,33.420383,-99999.0,'11111222,11111222,99999999' 
TABS,ioos:station:wmo:42046:1,2007-09-03T20:00:00Z,27.8903,-94.0367,2.0,14.94627175,32.68579661,-99999.0,'11111222,11111222,99999999' 
TABS,ioos:station:wmo:42046:1,2007-09-03T20:30:00Z,27.8903,-94.0367,2.0,18.24552835,36.31579546,-99999.0,'11111222,11111222,99999999' 
TABS,ioos:station:wmo:42046:1,2007-09-03T21:00:00Z,27.8903,-94.0367,2.0,18.03411189,37.0501525,-99999.0,'11111222,11111222,99999999' 
TABS,ioos:station:wmo:42046:1,2007-09-03T21:30:00Z,27.8903,-94.0367,2.0,19.75477712,35.5629203,-99999.0,'11111222,11111222,99999999' 
TABS,ioos:station:wmo:42046:1,2007-09-03T22:00:00Z,27.8903,-94.0367,2.0,20.39139755,32.14431365,-99999.0,'11111222,11111222,99999999' 
TABS,ioos:station:wmo:42046:1,2007-09-03T22:30:00Z,27.8903,-94.0367,2.0,26.46086313,34.38183823,-99999.0,'11111222,11111222,99999999' 
TABS,ioos:station:wmo:42046:1,2007-09-03T23:00:00Z,27.8903,-94.0367,2.0,32.19408965,30.27476342,-99999.0,'11111222,11111222,99999999' 
TABS,ioos:station:wmo:42046:1,2007-09-03T23:30:00Z,27.8903,-94.0367,2.0,35.92208533,28.77193772,-99999.0,'11111222,11111222,99999999' 
TABS,ioos:station:wmo:42046:1,2007-09-04T00:00:00Z,27.8903,-94.0367,2.0,39.26912696,21.73905472,-99999.0,'11111222,11111222,99999999' 
TABS,ioos:station:wmo:42046:1,2007-09-04T00:30:00Z,27.8903,-94.0367,2.0,37.68191286,18.20782799,-99999.0,'11111222,11111222,99999999' 
TABS,ioos:station:wmo:42046:1,2007-09-04T01:00:00Z,27.8903,-94.0367,2.0,52.56651102,5.692275468,-99999.0,'11133222,11111222,99999999' 
TABS,ioos:station:wmo:42046:1,2007-09-04T01:30:00Z,27.8903,-94.0367,2.0,48.71538565,6.001808061,-99999.0,'11133222,11111222,99999999' 
TABS,ioos:station:wmo:42046:1,2007-09-04T02:00:00Z,27.8903,-94.0367,2.0,33.25529543,9.865627197,-99999.0,'11133222,11111222,99999999' 
TABS,ioos:station:wmo:42046:1,2007-09-04T02:30:00Z,27.8903,-94.0367,2.0,37.48996861,11.09064921,-99999.0,'11111222,11111222,99999999' 
TABS,ioos:station:wmo:42046:1,2007-09-04T03:00:00Z,27.8903,-94.0367,2.0,45.56144238,10.8263244,-99999.0,'11111222,11111222,99999999' 
TABS,ioos:station:wmo:42046:1,2007-09-04T03:30:00Z,27.8903,-94.0367,2.0,41.24526397,6.370565124,-99999.0,'11133222,11111222,99999999' 
TABS,ioos:station:wmo:42046:1,2007-09-04T04:00:00Z,27.8903,-94.0367,2.0,30.51540554,3.505538475,-99999.0,'11133222,11111222,99999999' 
TABS,ioos:station:wmo:42046:1,2007-09-04T04:30:00Z,27.8903,-94.0367,2.0,0.000210459,3.32,-99999.0,'11133222,11111222,99999999' 
TABS,ioos:station:wmo:42046:1,2007-09-04T05:00:00Z,27.8903,-94.0367,2.0,357.2210501,3.093638634,-99999.0,'11133222,11111222,99999999' 
TABS,ioos:station:wmo:42046:1,2007-09-04T05:30:00Z,27.8903,-94.0367,2.0,334.9242225,2.925764857,-99999.0,'11133222,11111222,99999999' 
TABS,ioos:station:wmo:42046:1,2007-09-04T06:00:00Z,27.8903,-94.0367,2.0,333.3087412,4.051765047,-99999.0,'11133222,11111222,99999999' 
TABS,ioos:station:wmo:42046:1,2007-09-04T06:30:00Z,27.8903,-94.0367,2.0,324.0332643,4.188520025,-99999.0,'11133222,11111222,99999999' 
TABS,ioos:station:wmo:42046:1,2007-09-04T07:00:00Z,27.8903,-94.0367,2.0,301.7456341,6.53813429,-99999.0,'11133222,11111222,99999999' 
TABS,ioos:station:wmo:42046:1,2007-09-04T07:30:00Z,27.8903,-94.0367,2.0,316.3441026,8.141038017,-99999.0,'11133222,11111222,99999999' 
TABS,ioos:station:wmo:42046:1,2007-09-04T08:00:00Z,27.8903,-94.0367,2.0,294.5582065,9.576246655,-99999.0,'11133222,11111222,99999999' 
TABS,ioos:station:wmo:42046:1,2007-09-04T08:30:00Z,27.8903,-94.0367,2.0,300.4001428,12.37079221,-99999.0,'11111222,11111222,99999999' 
TABS,ioos:station:wmo:42046:1,2007-09-04T09:00:00Z,27.8903,-94.0367,2.0,302.7912245,16.08273919,-99999.0,'11111222,11111222,99999999' 
TABS,ioos:station:wmo:42046:1,2007-09-04T09:30:00Z,27.8903,-94.0367,2.0,305.6448439,14.96342207,-99999.0,'11111222,11111222,99999999' 
TABS,ioos:station:wmo:42046:1,2007-09-04T10:00:00Z,27.8903,-94.0367,2.0,299.7986267,18.63374627,-99999.0,'11111222,11111222,99999999' 
TABS,ioos:station:wmo:42046:1,2007-09-04T10:30:00Z,27.8903,-94.0367,2.0,312.1367358,17.12629849,-99999.0,'11111222,11111222,99999999' 
TABS,ioos:station:wmo:42046:1,2007-09-04T11:00:00Z,27.8903,-94.0367,2.0,305.4220554,17.80568729,-99999.0,'11111222,11111222,99999999' 
TABS,ioos:station:wmo:42046:1,2007-09-04T11:30:00Z,27.8903,-94.0367,2.0,300.5955268,15.46263238,-99999.0,'11111222,11111222,99999999' 
TABS,ioos:station:wmo:42046:1,2007-09-04T12:00:00Z,27.8903,-94.0367,2.0,306.2328998,27.50970192,-99999.0,'11111222,11111222,99999999' 
TABS,ioos:station:wmo:42046:1,2007-09-04T12:30:00Z,27.8903,-94.0367,2.0,311.034123,25.86427072,-99999.0,'11111222,11111222,99999999' 
TABS,ioos:station:wmo:42046:1,2007-09-04T13:00:00Z,27.8903,-94.0367,2.0,318.6625569,30.88585599,-99999.0,'11111222,11111222,99999999' 
TABS,ioos:station:wmo:42046:1,2007-09-04T13:30:00Z,27.8903,-94.0367,2.0,320.1736842,31.36775733,-99999.0,'11111222,11111222,99999999' 
TABS,ioos:station:wmo:42046:1,2007-09-04T14:00:00Z,27.8903,-94.0367,2.0,323.0461305,32.6360353,-99999.0,'11111222,11111222,99999999' 
TABS,ioos:station:wmo:42046:1,2007-09-04T14:30:00Z,27.8903,-94.0367,2.0,323.2582909,35.84008929,-99999.0,'11111222,11111222,99999999' 
TABS,ioos:station:wmo:42046:1,2007-09-04T15:00:00Z,27.8903,-94.0367,2.0,328.1312529,38.75151223,-99999.0,'11111222,11111222,99999999' 
TABS,ioos:station:wmo:42046:1,2007-09-04T15:30:00Z,27.8903,-94.0367,2.0,335.2154756,41.45882295,-99999.0,'11111222,11111222,99999999' 
TABS,ioos:station:wmo:42046:1,2007-09-04T16:00:00Z,27.8903,-94.0367,2.0,343.2696441,41.99781542,-99999.0,'11111222,11111222,99999999' 